Tracking 31027 objects as of 19-Jul-2025
HD Live streaming from Space Station
objects crossing your sky now

STARLINK-5827

Track STARLINK-5827 now!
10-day predictions
STARLINK-5827 is classified as:


NORAD ID: 57066
Int'l Code: 2023-088U
Perigee: 565.1 km
Apogee: 567.3 km
Inclination: 43.0 °
Period: 95.8 minutes
Semi major axis: 6937 km
RCS: Unknown
Launch date: June 22, 2023
Source: United States (US)
Launch site: AIR FORCE WESTERN TEST RANGE (AFWTR)
Your satellite tracking list
FENGYUN 1C DEB
Track 1 satellite(s)




NASA's NSSDC Master Catalog

Two Line Element Set (TLE):
1 57066U 23088U   25199.55843595  .00000177  00000-0  28173-4 0  9995
2 57066  43.0042 299.3929 0001610 269.6078  90.4579 15.02534549114174
Source of the keplerian elements: AFSPC